Regional Weather Roundup
Issued by NWS Charleston, SC

Current Version | Previous Version | Graphics & Text | Print | Product List | Glossary On
Versions: 1 2 3 4 5 6 7 8 9 10 11 12 13 14 15 16 17 18 19 20 21 22 23 24 25 26 27 28 29 30 31 32 33 34 35 36 37 38 39 40 41 42 43 44 45 46 47 48 49 50
000 ASUS42 KCHS 040627 RWRCHS REGIONAL WEATHER ROUNDUP NATIONAL WEATHER SERVICE CHARLESTON SC 100 AM EST SUN DEC 04 2016 NOTE: "FAIR" INDICATES FEW OR NO CLOUDS BELOW 12,000 FEET WITH NO SIGNIFICANT WEATHER AND/OR OBSTRUCTIONS TO VISIBILITY. NOT ALL STATIONS ARE QUALITY CONTROLLED. USE DATA WITH CAUTION... ESPECIALLY DEWPOINT OBSERVATIONS. SCZ027-030-031-034>040-042>050-040700- ...SOUTHEAST SOUTH CAROLINA... CITY SKY/WX TMP DP RH WIND PRES REMARKS N CHARLESTON CLOUDY 51 37 58 NE7 30.22F 6HR MIN TEMP: 51; 6HR MAX TEMP: 53; WATERFRONT PRK N/A 52 42 69 E5 30.21F MOUNT PLEASANT MOCLDY 50 39 66 CALM 30.23S JOHNS ISLAND FAIR 52 39 62 NE6 30.22S PINOPOLIS N/A 50 39 66 E5 30.15F MONCKS CORNER CLOUDY 46 37 71 CALM 30.22F SUMMERVILLE CLOUDY 50 43 76 E3 30.23F BEAUFORT MCAS CLOUDY 53 41 63 E7 30.21F 6HR MIN TEMP: 52; 6HR MAX TEMP: 55; BEAUFORT ARPT FAIR 52 41 66 NE7 30.21F HILTON HEAD IS CLOUDY 55 45 67 N7 30.21F WALTERBORO CLOUDY 50 43 76 CALM 30.23R ALLENDALE CLOUDY 50 41 71 CALM 30.20F ...SOUTHERN MIDLANDS AND PEE DEE... CITY SKY/WX TMP DP RH WIND PRES REMARKS GEORGETOWN NOT AVBL KINGSTREE CLOUDY 45 37 76 CALM 30.22F ORANGEBURG CLOUDY 48 41 76 CALM 30.22F 6HR MIN TEMP: 48; 6HR MAX TEMP: 51; 6HR PCP: TRACE; BARNWELL NOT AVBL AIKEN LGT RAIN 46 39 76 CALM 30.27R MANNING NOT AVBL COLUMBIA LGT RAIN 50 42 74 CALM 30.22S 6HR MIN TEMP: 49; 6HR MAX TEMP: 51; 6HR PCP: TRACE; SUMTER LGT RAIN 46 43 87 CALM 30.21F 6HR MIN TEMP: 47; 6HR MAX TEMP: 49; 6HR PCP: TRACE; FLORENCE CLOUDY 47 43 86 CALM 30.24F 6HR MIN TEMP: 47; 6HR MAX TEMP: 50; 6HR PCP: 0.01; MYRTLE BEACH CLOUDY 48 34 57 NE6 30.25F N MYRTLE BEACH CLOUDY 47 40 76 NE3 30.24F 6HR MIN TEMP: 45; 6HR MAX TEMP: 47; 6HR PCP: TRACE; $$ GAZ063-065-086>088-099>101-113>116-118-119-134>141-150-040700- ...SOUTHEAST GEORGIA... CITY SKY/WX TMP DP RH WIND PRES REMARKS SAVANNAH ARPT CLOUDY 53 41 63 NE7 30.22S 6HR MIN TEMP: 53; 6HR MAX TEMP: 56; HUNTER AAF CLOUDY 55 46 72 NE6 30.18F 6HR MIN TEMP: 55; 6HR MAX TEMP: 56; FORT STEWART CLOUDY 53 42 65 CALM 30.18F 6HR MIN TEMP: 53; 6HR MAX TEMP: 55; STATESBORO CLOUDY 52 44 72 CALM 30.19F SYLVANIA CLOUDY N/A N/A N/A CALM 30.21F CLAXTON MOCLDY 53 46 76 NE6 30.20F ...CSRA...CENTRAL AND FAR SOUTHEAST GEORGIA... CITY SKY/WX TMP DP RH WIND PRES REMARKS THOMSON CLOUDY 48 48 100 CALM 30.28R AUGUSTA-BUSH CLOUDY 50 45 83 N3 30.23R 6HR MIN TEMP: 50; 6HR MAX TEMP: 55; 6HR PCP: 0.01; AUGUSTA-DANIEL CLOUDY 50 41 71 CALM 30.23R SWAINSBORO CLOUDY 54 39 58 E5 30.20R VIDALIA CLOUDY 54 46 76 SE6 30.18F EASTMAN FAIR 56 31 38 E5 30.19S HAZLEHURST MOCLDY 56 44 64 E7 30.16F ALMA PTCLDY 53 45 74 E3 30.18F 6HR MIN TEMP: 53; 6HR MAX TEMP: 57; WAYCROSS CLEAR 55 52 88 E3 30.19S JESUP FAIR 54 50 87 CALM 30.19F BAXLEY MOCLDY 54 45 71 CALM 30.18F BRUNSWICK CLOUDY 59 52 77 NE9 30.19S SAINT SIMONS CLOUDY 61 49 64 NE13 30.18F 6HR MIN TEMP: 59; 6HR MAX TEMP: 61; $$ SCZ027-028-034-036>038-045-046-048>050-GAZ119-141-040700- ...LAKE AND SUPPLEMENTAL COASTAL OBSERVATIONS... STATION/POSITION TIME TEMP WIND PRES WAVE SWELL AIR SEA DIR/SP/G HT/PER HT/PER/DIR (UTC) (F) (DEG/KT/KT) (MB) (FT/S) (FT/S/D) WINYAH BAY 0545 49 10/ 5 1023.0F LAKE MURRAY 0530 49 70/ 2/ 6 1022.7F ACE BASIN NERRS 0545 52 50/ 1 1023.0F FORT PULASKI 0600 58 62 80/ 13/ 15 1022.8 SAPELO ISLAND 0600 58 60/ 10 1022.0 $$ ANZ835-935-AMZ111-154-330-350-352-354-370-450-454-472-040700- ...C-MAN AND BUOY OBSERVATIONS... STATION/POSITION TIME TEMP WIND PRES WAVE SWELL AIR SEA DIR/SP/G HT/PER HT/PER/DIR (UTC) (F) (DEG/KT/KT) (MB) (FT/S) (FT/S/D) BUOY 41004 0550 59 74 50/ 12/ 16 1022.1F 3/ 8 2/120/ 8 BUOY 41008 0550 62 65 70/ 17/ 21 1021.2F 4/ 5 2/120/ 8 FOLLY BEACH CMAN 0600 54 60/ 9/ 11 1023.7F CAPERS NEARSHORE 0508 54 62 70/ 10/ 14 1023.4F FRIPP NEARSHORE 0608 58 62 80/ 12/ 16 1022.6F STATION/POSITION TIME TEMP WIND PRES WAVE SWELL AIR SEA DIR/SP/G HT/PER HT/PER/DIR (UTC) (F) (DEG/KT/KT) (MB) (FT/S) (FT/S/D) 5E ST. MARYS GA 0600 66 N/A 5/ 6 FRYING PAN BUOY 0610 57 73 40/ 8/ 14 1023.5 BUOY 41025 0550 53 75 360/ 12/ 17 1024.5F 5/ 8 5/ 70/ 8 CAPE LOOKOUT NC 0600 49 10/ 6/ 8 1024.2F BUOY 41002 0550 64 73 360/ 8/ 12 1021.9F 5/ 8 5/ 50/ 8 BUOY 41010 NOT AVBL ST AUGUSTINE FL 0600 69 66 110/ 10/ 10 1021.3F $$

USA.gov is the U.S. government's official web portal to all federal, state and local government web resources and services.